Franklin, VA

5:44 PM EDT on May 22, 2017 (GMT -0400)
Franklin Municipal-Rose

Weather History for KFKN - May, 2009

Change the Weather History Date:

Friday, May 8, 2009

  Actual Average (KSFQ) Record (KSFQ)
Temperature  
Mean Temperature 72 °F -  
Max Temperature 82 °F 75 °F 91 °F (2000)
Min Temperature 62 °F 51 °F 34 °F (1956)
Cooling Degree Days 7    
Growing Degree Days 22 (Base 50)    
Moisture  
Dew Point 65 °F    
Average Humidity 78    
Maximum Humidity 100    
Minimum Humidity 51    
Precipitation  
Precipitation 0.00 in - - ()
Sea Level Pressure  
Sea Level Pressure 29.87 in    
Wind  
Wind Speed 3 mph (SSW)    
Max Wind Speed 9 mph    
Max Gust Speed -    
Visibility 9 miles    
Events      
Averages and records for this station are not official NWS values.
T = Trace of Precipitation, MM = Missing Value Source: NWS Daily Summary

Daily Weather History Graph

Daily Weather History Graph

Search for Another Location

Airport or City:

Trip Planner

Search our weather history database for the weather conditions in past years. The results will help you decide how hot, cold, wet, or windy it might be!

Date:

Astronomy

May. 08, 2009 Rise Set
Actual Time 6:06 AM EDT 8:02 PM EDT
Civil Twilight 5:37 AM EDT 8:30 PM EDT
Nautical Twilight 5:03 AM EDT 9:05 PM EDT
Astronomical Twilight 4:26 AM EDT 9:42 PM EDT
Moon 7:58 PM EDT (5/8) 5:20 AM EDT (5/8)
Length of Visible Light 14h 52m
Length of Day
13h 56m
Full, 100% of the Moon is Illuminated
May 8
Full
May 9
Full
May 17
Last Quarter
May 24
New
May 30
First Quarter

Hourly Weather History & Observations

Time (EDT) Temp. Heat Index Dew Point Humidity Pressure Visibility Wind Dir Wind Speed Gust Speed Precip Events Conditions
12:00 AM 66.2 °F - 64.4 °F 94% 29.87 in 10.0 mi NNE 8.1 mph - N/A   Unknown
12:20 AM 64.4 °F - 64.4 °F 100% 29.88 in 10.0 mi ENE 3.5 mph - N/A   Unknown
12:40 AM 64.4 °F - 62.6 °F 94% 29.89 in 7.0 mi Calm Calm - N/A   Unknown
1:00 AM 64.4 °F - 62.6 °F 94% 29.89 in 3.0 mi Calm Calm - N/A   Clear
1:40 AM 64.4 °F - 64.4 °F 100% 29.88 in 5.0 mi Calm Calm - N/A   Clear
2:20 AM 64.4 °F - 64.4 °F 100% 29.86 in 7.0 mi Calm Calm - N/A   Unknown
2:40 AM 64.4 °F - 62.6 °F 94% 29.85 in 2.0 mi Calm Calm - N/A   Unknown
3:00 AM 62.6 °F - 62.6 °F 100% 29.86 in 7.0 mi South 3.5 mph - N/A   Unknown
3:20 AM 62.6 °F - 62.6 °F 100% 29.86 in 10.0 mi South 3.5 mph - N/A   Unknown
3:40 AM 64.4 °F - 64.4 °F 100% 29.87 in 10.0 mi SSW 3.5 mph - N/A   Unknown
4:00 AM 64.4 °F - 62.6 °F 94% 29.86 in 4.0 mi Calm Calm - N/A   Clear
4:20 AM 64.4 °F - 62.6 °F 94% 29.87 in 1.2 mi Calm Calm - N/A   Clear
4:40 AM 64.4 °F - 64.4 °F 100% 29.87 in 1.2 mi SW 3.5 mph - N/A   Clear
5:00 AM 64.4 °F - 64.4 °F 100% 29.86 in 5.0 mi WSW 3.5 mph - N/A   Clear
5:20 AM 64.4 °F - 64.4 °F 100% 29.86 in 10.0 mi Calm Calm - N/A   Clear
5:40 AM 62.6 °F - 62.6 °F 100% 29.85 in 1.8 mi Calm Calm - N/A   Clear
6:00 AM 64.4 °F - 62.6 °F 94% 29.86 in 1.5 mi Calm Calm - N/A   Clear
6:20 AM 64.4 °F - 64.4 °F 100% 29.87 in 7.0 mi Calm Calm - N/A   Clear
6:40 AM 64.4 °F - 64.4 °F 100% 29.87 in 7.0 mi Calm Calm - N/A   Clear
7:00 AM 64.4 °F - 64.4 °F 100% 29.88 in 10.0 mi Calm Calm - N/A   Clear
7:20 AM 66.2 °F - 64.4 °F 94% 29.88 in 10.0 mi Calm Calm - N/A   Clear
7:40 AM 66.2 °F - 64.4 °F 94% 29.88 in 10.0 mi Calm Calm - N/A   Clear
8:00 AM 68.0 °F - 66.2 °F 94% 29.89 in 10.0 mi West 4.6 mph - N/A   Clear
8:20 AM 69.8 °F - 64.4 °F 83% 29.90 in 10.0 mi West 3.5 mph - N/A   Clear
8:40 AM 69.8 °F - 64.4 °F 83% 29.90 in 10.0 mi West 4.6 mph - N/A   Clear
9:00 AM 71.6 °F - 64.4 °F 78% 29.91 in 10.0 mi Calm Calm - N/A   Clear
9:20 AM 71.6 °F - 64.4 °F 78% 29.90 in 10.0 mi Calm Calm - N/A   Clear
9:40 AM 73.4 °F - 64.4 °F 73% 29.90 in 10.0 mi Calm Calm - N/A   Clear
10:00 AM 75.2 °F - 64.4 °F 69% 29.91 in 10.0 mi WSW 3.5 mph - N/A   Clear
10:20 AM 75.2 °F - 64.4 °F 69% 29.91 in 10.0 mi WSW 4.6 mph - N/A   Clear
10:40 AM 75.2 °F - 66.2 °F 73% 29.91 in 10.0 mi South 3.5 mph - N/A   Clear
11:00 AM 75.2 °F - 66.2 °F 73% 29.90 in 10.0 mi SW 3.5 mph - N/A   Clear
11:20 AM 77.0 °F - 66.2 °F 69% 29.90 in 10.0 mi SSW 4.6 mph - N/A   Clear
11:40 AM 78.8 °F - 64.4 °F 61% 29.89 in 10.0 mi SW 5.8 mph - N/A   Clear
12:00 PM 78.8 °F - 64.4 °F 61% 29.88 in 10.0 mi South 8.1 mph - N/A   Clear
12:20 PM 78.8 °F - 64.4 °F 61% 29.88 in 10.0 mi SW 4.6 mph - N/A   Clear
12:40 PM 78.8 °F - 66.2 °F 65% 29.89 in 10.0 mi WSW 5.8 mph - N/A   Clear
1:00 PM 78.8 °F - 66.2 °F 65% 29.90 in 10.0 mi SW 4.6 mph - N/A   Clear
1:20 PM 80.6 °F 82.3 °F 64.4 °F 58% 29.89 in 10.0 mi WSW 8.1 mph - N/A   Clear
1:40 PM 80.6 °F 82.7 °F 66.2 °F 61% 29.89 in 10.0 mi SW 4.6 mph - N/A   Clear
2:00 PM 80.6 °F 82.3 °F 64.4 °F 58% 29.90 in 10.0 mi WSW 9.2 mph - N/A   Clear
2:20 PM 82.4 °F 83.9 °F 64.4 °F 54% 29.89 in 10.0 mi WSW 8.1 mph - N/A   Clear
2:40 PM 82.4 °F 83.4 °F 62.6 °F 51% 29.89 in 10.0 mi SW 6.9 mph - N/A   Clear
3:20 PM 82.4 °F 83.4 °F 62.6 °F 51% 29.87 in 10.0 mi SW 5.8 mph - N/A   Clear
3:40 PM 80.6 °F 82.3 °F 64.4 °F 58% 29.86 in 10.0 mi SW 5.8 mph - N/A   Clear
4:00 PM 82.4 °F 83.9 °F 64.4 °F 54% 29.86 in 10.0 mi WSW 3.5 mph - N/A   Clear
4:20 PM 82.4 °F 83.9 °F 64.4 °F 54% 29.85 in 10.0 mi SSW 6.9 mph - N/A   Clear
4:40 PM 82.4 °F 83.9 °F 64.4 °F 54% 29.84 in 10.0 mi South 6.9 mph - N/A   Clear
5:00 PM 82.4 °F 83.9 °F 64.4 °F 54% 29.84 in 10.0 mi South 5.8 mph - N/A   Clear
5:20 PM 80.6 °F 82.7 °F 66.2 °F 61% 29.83 in 10.0 mi South 4.6 mph - N/A   Clear
5:40 PM 80.6 °F 82.7 °F 66.2 °F 61% 29.83 in 10.0 mi SSE 4.6 mph - N/A   Clear
6:00 PM 80.6 °F 82.7 °F 66.2 °F 61% 29.83 in 10.0 mi South 6.9 mph - N/A   Scattered Clouds
6:20 PM 80.6 °F 83.2 °F 68.0 °F 65% 29.82 in 10.0 mi SSE 6.9 mph - N/A   Scattered Clouds
6:40 PM 80.6 °F 83.2 °F 68.0 °F 65% 29.82 in 10.0 mi South 6.9 mph - N/A   Scattered Clouds
7:00 PM 78.8 °F - 69.8 °F 74% 29.81 in 10.0 mi SSE 5.8 mph - N/A   Clear
7:20 PM 78.8 °F - 69.8 °F 74% 29.81 in 10.0 mi South 4.6 mph - N/A   Clear
7:40 PM 77.0 °F - 69.8 °F 78% 29.83 in 10.0 mi South 3.5 mph - N/A   Clear
8:00 PM 77.0 °F - 69.8 °F 78% 29.83 in 10.0 mi SSE 3.5 mph - N/A   Clear
8:20 PM 75.2 °F - 69.8 °F 83% 29.84 in 10.0 mi South 3.5 mph - N/A   Clear
8:40 PM 75.2 °F - 69.8 °F 83% 29.84 in 10.0 mi South 3.5 mph - N/A   Clear
9:00 PM 75.2 °F - 69.8 °F 83% 29.84 in 10.0 mi South 4.6 mph - N/A   Clear
9:20 PM 75.2 °F - 69.8 °F 83% 29.85 in 10.0 mi South 3.5 mph - N/A   Scattered Clouds
9:40 PM 73.4 °F - 69.8 °F 88% 29.84 in 10.0 mi South 5.8 mph - N/A   Scattered Clouds
10:00 PM 75.2 °F - 69.8 °F 83% 29.85 in 10.0 mi South 5.8 mph - N/A   Clear
10:20 PM 75.2 °F - 69.8 °F 83% 29.85 in 10.0 mi South 5.8 mph - N/A   Clear
10:40 PM 75.2 °F - 69.8 °F 83% 29.85 in 10.0 mi South 8.1 mph - N/A   Clear
11:00 PM 73.4 °F - 69.8 °F 88% 29.84 in 10.0 mi South 5.8 mph - N/A   Clear
11:20 PM 73.4 °F - 69.8 °F 88% 29.84 in 10.0 mi South 6.9 mph - N/A   Clear
11:40 PM 73.4 °F - 69.8 °F 88% 29.83 in 10.0 mi South 6.9 mph - N/A   Clear